Lanai City, HI

8:27 PM HST on November 19, 2017 (GMT -1000)
Lanai City

Weather History for PHNY - December, 2013

Change the Weather History Date:

Sunday, December 15, 2013

  Actual Average Record
Temperature  
Mean Temperature 69 °F -  
Max Temperature 77 °F 76 °F 84 °F (1998)
Min Temperature 61 °F 59 °F 54 °F (1953)
Cooling Degree Days 4    
Growing Degree Days 19 (Base 50)    
Moisture  
Dew Point 63 °F    
Average Humidity 87    
Maximum Humidity 100    
Minimum Humidity 57    
Precipitation  
Precipitation 0.07 in - - ()
Sea Level Pressure  
Sea Level Pressure 29.95 in    
Wind  
Wind Speed 5 mph (East)    
Max Wind Speed 10 mph    
Max Gust Speed -    
Visibility 10 miles    
Events Rain    
Averages and records for this station are not official NWS values.
T = Trace of Precipitation, MM = Missing Value Source: NWS Daily Summary

Daily Weather History Graph

Daily Weather History Graph

Search for Another Location

Airport or City:

Trip Planner

Search our weather history database for the weather conditions in past years. The results will help you decide how hot, cold, wet, or windy it might be!

Date:

Astronomy

Dec. 15, 2013 Rise Set
Actual Time 6:56 AM HST 5:49 PM HST
Civil Twilight 6:32 AM HST 6:13 PM HST
Nautical Twilight 6:05 AM HST 6:41 PM HST
Astronomical Twilight 5:37 AM HST 7:08 PM HST
Moon 4:54 PM HST (12/15) 5:31 AM HST (12/15)
Length of Visible Light 11h 41m
Length of Day
10h 52m
Waxing Gibbous, 98% of the Moon is Illuminated
Dec 15
Waxing Gibbous
Dec 16
Full
Dec 25
Last Quarter
Jan 1
New
Jan 7
First Quarter

Hourly Weather History & Observations

Time (HST) Temp. Dew Point Humidity Pressure Visibility Wind Dir Wind Speed Gust Speed Precip Events Conditions
12:56 AM 63.9 °F 63.0 °F 97% 29.95 in 10.0 mi East 4.6 mph - N/A   Clear
1:56 AM 63.0 °F 61.0 °F 93% 29.93 in 10.0 mi East 4.6 mph - N/A   Clear
2:56 AM 61.9 °F 61.0 °F 97% 29.91 in 10.0 mi East 8.1 mph - N/A   Clear
3:56 AM 61.9 °F 61.0 °F 97% 29.91 in 10.0 mi East 5.8 mph - N/A   Clear
4:56 AM 61.9 °F 61.9 °F 100% 29.91 in 10.0 mi ENE 6.9 mph - N/A   Clear
5:56 AM 61.9 °F 61.9 °F 100% 29.92 in 10.0 mi East 3.5 mph - N/A   Clear
6:56 AM 61.9 °F 59.0 °F 90% 29.93 in 10.0 mi East 6.9 mph - N/A   Clear
7:56 AM 64.9 °F 59.9 °F 84% 29.95 in 10.0 mi East 5.8 mph - N/A   Clear
8:56 AM 74.8 °F 59.9 °F 60% 29.96 in 10.0 mi WNW 3.5 mph - N/A   Clear
9:56 AM 75.9 °F 61.0 °F 60% 29.99 in 10.0 mi West 4.6 mph - N/A   Partly Cloudy
10:23 AM 75.2 °F 62.6 °F 65% 30.04 in 10.0 mi Variable 3.5 mph - N/A   Mostly Cloudy
10:31 AM 75.2 °F 60.8 °F 61% 30.04 in 9.0 mi WSW 4.6 mph - N/A   Mostly Cloudy
10:56 AM 77.0 °F 60.8 °F 57% 30.03 in 10.0 mi WSW 4.6 mph - N/A   Scattered Clouds
11:56 AM 75.9 °F 63.0 °F 64% 29.97 in 10.0 mi West 6.9 mph - N/A   Overcast
12:56 PM 72.9 °F 63.9 °F 73% 29.97 in 10.0 mi SW 6.9 mph - N/A   Mostly Cloudy
1:16 PM 71.6 °F 62.6 °F 73% 30.01 in 10.0 mi SW 5.8 mph - 0.00 in Rain Light Rain
1:56 PM 69.8 °F 64.4 °F 83% 29.99 in 10.0 mi WSW 6.9 mph - N/A Rain Light Rain
2:11 PM 69.8 °F 66.2 °F 88% 29.98 in 3.0 mi Calm Calm - 0.06 in Rain Rain
2:26 PM 69.8 °F 69.8 °F 100% 29.97 in 8.0 mi East 5.8 mph - 0.07 in Rain Light Rain
2:56 PM 68.9 °F 68.9 °F 100% 29.91 in 10.0 mi ESE 10.4 mph - 0.07 in   Clear
3:56 PM 68.9 °F 66.9 °F 93% 29.88 in 10.0 mi ESE 10.4 mph - N/A   Clear
4:56 PM 68.9 °F 64.9 °F 87% 29.86 in 10.0 mi ESE 10.4 mph - N/A   Mostly Cloudy
5:56 PM 68.9 °F 65.8 °F 90% 29.89 in 10.0 mi ESE 8.1 mph - N/A   Clear
6:56 PM 65.8 °F 64.9 °F 97% 29.92 in 10.0 mi East 4.6 mph - N/A   Clear
7:56 PM 63.9 °F 63.9 °F 100% 29.93 in 10.0 mi East 3.5 mph - N/A   Clear
8:56 PM 63.0 °F 63.0 °F 100% 29.94 in 10.0 mi ENE 3.5 mph - N/A   Clear
9:56 PM 63.9 °F 63.9 °F 100% 29.96 in 10.0 mi ENE 3.5 mph - N/A   Clear
10:56 PM 63.0 °F 63.0 °F 100% 29.96 in 10.0 mi East 4.6 mph - N/A   Clear
11:56 PM 63.9 °F 63.9 °F 100% 29.95 in 10.0 mi East 4.6 mph - N/A   Mostly Cloudy